Voltar ao catálogo

STARLINK-36086

AtivoComunicaçõesVLEO
NORAD 66980·PAYLOAD·🇺🇸 United States

Lançado Dec 8, 2025 de Cape Canaveral Space Force Station

Loading…

Próximas Passagens (próximas 24 horas)

TLE

AtualizadoSource: CelesTrak SupGP

Época: Sep 15, 2026, 04:03 UTC

1 66980C 25288X   26258.16923611  .00005032  00000+0  18219-3 0  2587
2 66980  43.0047  33.6351 0002067 274.7617  54.5024 15.27586727    10

Acompanhe STARLINK-36086 em tempo real com AllMySat

Download on the App Store